OpenBCM V1.07b12 (Linux)

Packet Radio Mailbox

DB0FHN

[JN59NK Nuernberg]

 Login: GUEST





  
I6KZR  > KEPLER   03.02.03 22:47l 1460 Lines 39192 Bytes #999 (0) @ WW
BID : 21942_IK6WID
Read: DB0FHN GUEST
Subj: Old Istantrak Keplerians #034
Path: DB0FHN<DB0ZWI<DB0CHZ<DB0ERF<DB0FBB<DB0GOS<ON0AR<ON0AR<IK1ZNW<IK6PYS<
      I6ZLO<IK6WID
Sent: 030203/2126Z @:IK6WID.#AP.IMAR.ITA.EU #:21942 [MONTE URANO]  FBB7.00i
From: I6KZR@IK6WID.#AP.IMAR.ITA.EU
To  : KEPLER@WW


Satellite: OSCAR 7
Catalog number: 07530
Epoch time:      103033.65055859
Element set:     157 
Inclination:      101.7641 deg
RA of node:        81.5854 deg
Eccentricity:    0.0012251
Arg of perigee:   108.4593 deg
Mean anomaly:     251.7810 deg
Mean motion:   12.53564125 rev/day
Decay rate:   -2.9000E-007 rev/day^2
Epoch rev:           29119
Checksum:              286

Satellite: GOES 2
Catalog number: 10061
Epoch time:      103028.56527598
Element set:     70 
Inclination:       14.1264 deg
RA of node:        13.5931 deg
Eccentricity:    0.0013180
Arg of perigee:   196.1337 deg
Mean anomaly:     163.8523 deg
Mean motion:    0.99391768 rev/day
Decay rate:    9.9999E-009 rev/day^2
Epoch rev:            3862
Checksum:              321

Satellite: GOES 3
Catalog number: 10953
Epoch time:      103032.98152591
Element set:     911 
Inclination:       13.4023 deg
RA of node:        17.3578 deg
Eccentricity:    0.0005248
Arg of perigee:   340.5119 deg
Mean anomaly:      19.5083 deg
Mean motion:    1.00278711 rev/day
Decay rate:   -1.0500E-006 rev/day^2
Epoch rev:            4333
Checksum:              254

Satellite: GOES 6
Catalog number: 14050
Epoch time:      103028.11159657
Element set:     417 
Inclination:       10.3721 deg
RA of node:        35.6208 deg
Eccentricity:    0.0003104
Arg of perigee:   350.7939 deg
Mean anomaly:       9.2480 deg
Mean motion:    1.00296104 rev/day
Decay rate:    4.1999E-007 rev/day^2
Epoch rev:           13042
Checksum:              262

Satellite: OSCAR 10
Catalog number: 14129
Epoch time:      103034.35061340
Element set:     914 
Inclination:       25.9028 deg
RA of node:       166.8331 deg
Eccentricity:    0.6027722
Arg of perigee:   324.8138 deg
Mean anomaly:       7.1176 deg
Mean motion:    2.05866763 rev/day
Decay rate:   -1.4800E-006 rev/day^2
Epoch rev:           11975
Checksum:              285

Satellite: OSCAR 11 (UoSA
Catalog number: 14781
Epoch time:      103033.97229848
Element set:     75 
Inclination:       98.1147 deg
RA of node:         7.7788 deg
Eccentricity:    0.0008198
Arg of perigee:   262.4878 deg
Mean anomaly:      97.5401 deg
Mean motion:   14.77944798 rev/day
Decay rate:    1.2970E-005 rev/day^2
Epoch rev:            1393
Checksum:              467

Satellite: NOAA 10
Catalog number: 16969
Epoch time:      103033.98308849
Element set:     654 
Inclination:       98.7276 deg
RA of node:        28.1266 deg
Eccentricity:    0.0013022
Arg of perigee:   129.2727 deg
Mean anomaly:     230.9610 deg
Mean motion:   14.27057207 rev/day
Decay rate:    1.4199E-006 rev/day^2
Epoch rev:           85168
Checksum:              329

Satellite: GOES 7
Catalog number: 17561
Epoch time:      103013.52827387
Element set:     810 
Inclination:        7.5470 deg
RA of node:        55.7264 deg
Eccentricity:    0.0004064
Arg of perigee:   288.6625 deg
Mean anomaly:     149.4031 deg
Mean motion:    1.00317770 rev/day
Decay rate:    1.1600E-006 rev/day^2
Epoch rev:            4138
Checksum:              275

Satellite: COSMOS 1861
Catalog number: 18129
Epoch time:      103033.83934299
Element set:     212 
Inclination:       82.9259 deg
RA of node:       158.1879 deg
Eccentricity:    0.0010256
Arg of perigee:   273.4205 deg
Mean anomaly:      86.5772 deg
Mean motion:   13.72699262 rev/day
Decay rate:    6.3999E-007 rev/day^2
Epoch rev:           78235
Checksum:              367

Satellite: EUTELSAT 1-F4 
Catalog number: 18351
Epoch time:      103033.74471135
Element set:     33 
Inclination:        7.1639 deg
RA of node:        58.7088 deg
Eccentricity:    0.0008052
Arg of perigee:   194.6441 deg
Mean anomaly:     165.4400 deg
Mean motion:    0.98689338 rev/day
Decay rate:   -1.2100E-006 rev/day^2
Epoch rev:            4252
Checksum:              289

Satellite: NOAA 11
Catalog number: 19531
Epoch time:      103033.95022415
Element set:     490 
Inclination:       98.9029 deg
RA of node:       115.3839 deg
Eccentricity:    0.0010983
Arg of perigee:   245.3571 deg
Mean anomaly:     114.6458 deg
Mean motion:   14.14529842 rev/day
Decay rate:    1.8099E-006 rev/day^2
Epoch rev:           74059
Checksum:              321

Satellite: ASTRA 1A
Catalog number: 19688
Epoch time:      103029.75771711
Element set:     566 
Inclination:        1.3459 deg
RA of node:        94.9986 deg
Eccentricity:    0.0004915
Arg of perigee:   207.7171 deg
Mean anomaly:     103.8285 deg
Mean motion:    1.00273261 rev/day
Decay rate:    2.6000E-007 rev/day^2
Epoch rev:            3199
Checksum:              306

Satellite: OSCAR 14 (UOSA
Catalog number: 20437
Epoch time:      103034.18842536
Element set:     156 
Inclination:       98.2745 deg
RA of node:        78.5348 deg
Eccentricity:    0.0009847
Arg of perigee:   248.2603 deg
Mean anomaly:     111.7532 deg
Mean motion:   14.31232102 rev/day
Decay rate:    1.0300E-006 rev/day^2
Epoch rev:           68029
Checksum:              395

Satellite: OSCAR 15 (UOSA
Catalog number: 20438
Epoch time:      103034.12687998
Element set:     771 
Inclination:       98.2489 deg
RA of node:        67.6655 deg
Eccentricity:    0.0009075
Arg of perigee:   260.5708 deg
Mean anomaly:      99.4450 deg
Mean motion:   14.30193518 rev/day
Decay rate:    9.8999E-007 rev/day^2
Epoch rev:           67995
Checksum:              388

Satellite: OSCAR 16 (PACS
Catalog number: 20439
Epoch time:      103033.71655913
Element set:     846 
Inclination:       98.3206 deg
RA of node:        89.6773 deg
Eccentricity:    0.0010116
Arg of perigee:   256.2501 deg
Mean anomaly:     103.7554 deg
Mean motion:   14.31464678 rev/day
Decay rate:    1.2199E-006 rev/day^2
Epoch rev:           68026
Checksum:              314

Satellite: OSCAR 17 (DOVE
Catalog number: 20440
Epoch time:      103033.91820831
Element set:     729 
Inclination:       98.3388 deg
RA of node:        93.7264 deg
Eccentricity:    0.0010287
Arg of perigee:   255.1786 deg
Mean anomaly:     104.8251 deg
Mean motion:   14.31742354 rev/day
Decay rate:    1.5199E-006 rev/day^2
Epoch rev:           68036
Checksum:              316

Satellite: OSCAR 18 (WEBE
Catalog number: 20441
Epoch time:      103034.53700132
Element set:     3 
Inclination:       98.3385 deg
RA of node:        93.5432 deg
Eccentricity:    0.0010792
Arg of perigee:   253.0866 deg
Mean anomaly:     106.9136 deg
Mean motion:   14.31546944 rev/day
Decay rate:    1.2699E-006 rev/day^2
Epoch rev:           68043
Checksum:              294

Satellite: OSCAR 19 (LUSA
Catalog number: 20442
Epoch time:      103033.74838150
Element set:     954 
Inclination:       98.3484 deg
RA of node:        95.7791 deg
Eccentricity:    0.0011061
Arg of perigee:   255.6512 deg
Mean anomaly:     104.3436 deg
Mean motion:   14.31709575 rev/day
Decay rate:    1.4099E-006 rev/day^2
Epoch rev:           68037
Checksum:              318

Satellite: JAS 1B (FUJI 2
Catalog number: 20480
Epoch time:      103033.95441392
Element set:     476 
Inclination:       99.0442 deg
RA of node:       359.6364 deg
Eccentricity:    0.0540911
Arg of perigee:    39.2182 deg
Mean anomaly:     324.6838 deg
Mean motion:   12.83329300 rev/day
Decay rate:   -9.9999E-009 rev/day^2
Epoch rev:           60851
Checksum:              336

Satellite: HST
Catalog number: 20580
Epoch time:      103034.43025535
Element set:     316 
Inclination:       28.4632 deg
RA of node:       136.4057 deg
Eccentricity:    0.0003759
Arg of perigee:   110.5110 deg
Mean anomaly:     335.4145 deg
Mean motion:   14.97746539 rev/day
Decay rate:    8.4847E-004 rev/day^2
Epoch rev:           50036
Checksum:              284

Satellite: EUTELSAT 2-F1
Catalog number: 20777
Epoch time:      103030.68024898
Element set:     23 
Inclination:        3.4545 deg
RA of node:        84.7257 deg
Eccentricity:    0.0000759
Arg of perigee:   290.8967 deg
Mean anomaly:      74.7691 deg
Mean motion:    1.00270725 rev/day
Decay rate:   -1.1099E-006 rev/day^2
Epoch rev:            2591
Checksum:              313

Satellite: FENGYUN 1B
Catalog number: 20788
Epoch time:      103033.97747665
Element set:     895 
Inclination:       99.0256 deg
RA of node:        16.3131 deg
Eccentricity:    0.0015028
Arg of perigee:   274.7025 deg
Mean anomaly:      85.2423 deg
Mean motion:   14.02136347 rev/day
Decay rate:   -1.5900E-006 rev/day^2
Epoch rev:           63535
Checksum:              304

Satellite: EUTELSAT 2-F2
Catalog number: 21056
Epoch time:      103028.05627895
Element set:     613 
Inclination:        2.6793 deg
RA of node:        88.1781 deg
Eccentricity:    0.0003016
Arg of perigee:   259.4382 deg
Mean anomaly:     207.9268 deg
Mean motion:    1.00269467 rev/day
Decay rate:    1.1600E-006 rev/day^2
Epoch rev:            3166
Checksum:              296

Satellite: INFORMATOR 1
Catalog number: 21087
Epoch time:      103033.91258687
Element set:     608 
Inclination:       82.9435 deg
RA of node:       328.9990 deg
Eccentricity:    0.0034245
Arg of perigee:   296.5158 deg
Mean anomaly:      63.2488 deg
Mean motion:   13.74924591 rev/day
Decay rate:    5.8000E-007 rev/day^2
Epoch rev:           60273
Checksum:              335

Satellite: COSMOS 2123
Catalog number: 21089
Epoch time:      103033.96153859
Element set:     495 
Inclination:       82.9207 deg
RA of node:       192.9512 deg
Eccentricity:    0.0028921
Arg of perigee:   332.7302 deg
Mean anomaly:      27.2330 deg
Mean motion:   13.74402601 rev/day
Decay rate:    7.0999E-007 rev/day^2
Epoch rev:           60164
Checksum:              311

